Location: Port Hueneme
(34.1478°N, 119.1951°W)
Time: 22:27:18
(UTC+00:00)

SL-8 R/B - Visible Passes

Search period start: 18 November 2025 00:00
Search period end: 28 November 2025 00:00
Orbit: 647 x 657 km, 48.4° (Epoch: 17 November)

Date Brightness Start Highest point End Pass type
(mag) Time Alt. Az. Time Alt. Az. Time Alt. Az.
18 Nov 5.6 12:14:13 18° S 12:16:28 25° SE 12:20:22 10° ENE visible
18 Nov 3.9 13:53:53 10° WSW 13:58:32 53° NNW 14:03:12 10° NE visible
19 Nov 4.0 12:42:01 36° SSW 12:43:49 65° SE 12:48:32 10° ENE visible
20 Nov 6.3 11:31:39 17° E 11:31:39 17° E 11:33:12 10° ENE visible
20 Nov 3.8 13:09:28 32° W 13:11:25 55° NW 13:16:06 10° NE visible
21 Nov 5.3 11:58:51 31° ENE 11:58:51 31° ENE 12:01:26 10° ENE visible
21 Nov 4.7 13:36:39 18° WNW 13:39:17 29° NNW 13:43:25 10° NE visible
22 Nov 4.6 12:25:50 38° NNE 12:25:50 38° NNE 12:29:00 10° NE visible
22 Nov 5.3 14:04:03 10° WNW 14:07:22 18° NNW 14:10:43 10° NNE visible
23 Nov 4.8 12:52:39 29° NNW 12:52:39 29° NNW 12:56:18 10° NE visible
24 Nov 6.5 11:41:34 12° NE 11:41:34 12° NE 11:41:53 10° NE visible
24 Nov 5.3 13:19:21 18° NNW 13:20:13 19° NNW 13:23:35 10° NNE visible
25 Nov 6.0 12:08:10 15° NNE 12:08:10 15° NNE 12:09:12 10° NE visible
25 Nov 5.7 13:45:57 10° NW 13:48:30 15° N 13:51:10 10° NNE visible
26 Nov 5.7 12:34:42 16° N 12:34:42 16° N 12:36:29 10° NNE visible
27 Nov 5.7 13:01:11 15° N 13:01:19 15° N 13:04:00 10° NNE visible
